Lewisburg, WV

12:23 PM EDT on September 19, 2017 (GMT -0400)
Greenbrier Valley

Weather History for KLWB - September, 2013

Change the Weather History Date:

Monday, September 30, 2013

  Actual Average Record
Temperature  
Mean Temperature 55 °F 57 °F  
Max Temperature 66 °F 70 °F 82 °F (1986)
Min Temperature 44 °F 44 °F 30 °F (2001)
Degree Days  
Heating Degree Days 10 9  
Month to date heating degree days 125  
Since 1 July heating degree days 153  
Cooling Degree Days 0 1  
Month to date cooling degree days 45  
Year to date cooling degree days 495  
Growing Degree Days 5 (Base 50)    
Moisture  
Dew Point 49 °F    
Average Humidity 82    
Maximum Humidity 100    
Minimum Humidity 52    
Precipitation  
Precipitation 0.00 in - 1.43 in (1973)
Snow  
Snow 0.00 in - - ()
Month to date snowfall  
Since 1 July snowfall  
Since 1 September snowfall  
Snow Depth -    
Sea Level Pressure  
Sea Level Pressure 30.11 in    
Wind  
Wind Speed 0 mph (NW)    
Max Wind Speed 6 mph    
Max Gust Speed -    
Visibility 7 miles    
Events Fog    
T = Trace of Precipitation, MM = Missing Value Source: NWS Daily Summary

Daily Weather History Graph

Daily Weather History Graph

Search for Another Location

Airport or City:

Trip Planner

Search our weather history database for the weather conditions in past years. The results will help you decide how hot, cold, wet, or windy it might be!

Date:

Astronomy

Sep. 30, 2013 Rise Set
Actual Time 7:16 AM EDT 7:05 PM EDT
Civil Twilight 6:50 AM EDT 7:31 PM EDT
Nautical Twilight 6:19 AM EDT 8:02 PM EDT
Astronomical Twilight 5:49 AM EDT 8:33 PM EDT
Moon 2:56 AM EDT (9/30) 4:32 PM EDT (9/30)
Length of Visible Light 12h 41m
Length of Day
11h 49m
Waning Crescent, 19% of the Moon is Illuminated
Sep 30
Waning Crescent
Oct 4
New
Oct 11
First Quarter
Oct 18
Full
Oct 26
Last Quarter

Hourly Weather History & Observations

Time (EDT) Temp. Dew Point Humidity Pressure Visibility Wind Dir Wind Speed Gust Speed Precip Events Conditions
12:15 AM 51.8 °F 48.2 °F 88% 30.12 in 10.0 mi Calm Calm - N/A   Scattered Clouds
12:35 AM 51.8 °F 48.2 °F 88% 30.12 in 10.0 mi Calm Calm - N/A   Mostly Cloudy
12:55 AM 51.8 °F 50.0 °F 94% 30.12 in 10.0 mi Calm Calm - N/A   Overcast
1:15 AM 51.8 °F 50.0 °F 94% 30.12 in 10.0 mi Calm Calm - N/A   Scattered Clouds
1:35 AM 50.0 °F 48.2 °F 94% 30.13 in 5.0 mi Calm Calm - N/A   Clear
1:55 AM 50.0 °F 46.4 °F 87% 30.12 in 7.0 mi Calm Calm - N/A   Clear
2:15 AM 50.0 °F 46.4 °F 87% 30.12 in 4.0 mi Calm Calm - N/A   Clear
2:35 AM 48.2 °F 46.4 °F 93% 30.12 in 1.2 mi Calm Calm - N/A   Mist
2:55 AM 48.2 °F 46.4 °F 93% 30.12 in 0.5 mi Calm Calm - N/A Fog Fog
3:15 AM 46.4 °F 44.6 °F 93% 30.12 in 0.2 mi Calm Calm - N/A Fog Fog
3:35 AM 46.4 °F 46.4 °F 100% 30.11 in 5.0 mi Calm Calm - N/A   Scattered Clouds
3:55 AM 48.2 °F 46.4 °F 93% 30.11 in 5.0 mi Calm Calm - N/A   Clear
4:15 AM 46.4 °F 44.6 °F 93% 30.11 in 0.5 mi Calm Calm - N/A Fog Fog
4:35 AM 46.4 °F 44.6 °F 93% 30.11 in 0.2 mi Calm Calm - N/A Fog Fog
4:55 AM 46.4 °F 44.6 °F 93% 30.11 in 0.2 mi Calm Calm - N/A Fog Fog
5:15 AM 46.4 °F 44.6 °F 93% 30.11 in 0.2 mi Calm Calm - N/A Fog Fog
5:35 AM 46.4 °F 44.6 °F 93% 30.12 in 0.5 mi Calm Calm - N/A Fog Fog
5:55 AM 46.4 °F 44.6 °F 93% 30.12 in 0.2 mi Calm Calm - N/A Fog Fog
6:15 AM 46.4 °F 44.6 °F 93% 30.12 in 0.8 mi Calm Calm - N/A   Overcast
6:35 AM 46.4 °F 44.6 °F 93% 30.12 in 0.2 mi Calm Calm - N/A Fog Fog
6:55 AM 44.6 °F 44.6 °F 100% 30.13 in 0.2 mi Calm Calm - N/A Fog Fog
7:15 AM 44.6 °F 42.8 °F 93% 30.13 in 0.2 mi Calm Calm - N/A Fog Fog
7:35 AM 44.6 °F 44.6 °F 100% 30.14 in 0.2 mi Calm Calm - N/A Fog Fog
7:55 AM 44.6 °F 42.8 °F 93% 30.14 in 0.2 mi Calm Calm - N/A Fog Fog
8:15 AM 44.6 °F 44.6 °F 100% 30.14 in 0.2 mi Calm Calm - N/A Fog Fog
8:35 AM 46.4 °F 44.6 °F 93% 30.15 in 5.0 mi Calm Calm - N/A   Mostly Cloudy
8:55 AM 46.4 °F 44.6 °F 93% 30.15 in 0.5 mi Calm Calm - N/A Fog Fog
9:15 AM 48.2 °F 46.4 °F 93% 30.15 in 1.5 mi NNE 3.5 mph - N/A   Overcast
9:35 AM 50.0 °F 46.4 °F 87% 30.14 in 4.0 mi Calm Calm - N/A   Mostly Cloudy
9:55 AM 50.0 °F 50.0 °F 100% 30.15 in 10.0 mi Calm Calm - N/A   Scattered Clouds
10:15 AM 51.8 °F 50.0 °F 94% 30.14 in 10.0 mi Calm Calm - N/A   Clear
10:35 AM 55.4 °F 51.8 °F 88% 30.14 in 10.0 mi Calm Calm - N/A   Clear
10:55 AM 57.2 °F 50.0 °F 77% 30.14 in 10.0 mi Calm Calm - N/A   Clear
11:15 AM 59.0 °F 50.0 °F 72% 30.14 in 10.0 mi SSW 5.8 mph - N/A   Clear
11:35 AM 60.8 °F 50.0 °F 68% 30.14 in 10.0 mi Calm Calm - N/A   Clear
11:55 AM 62.6 °F 51.8 °F 68% 30.13 in 10.0 mi Calm Calm - N/A   Clear
12:15 PM 62.6 °F 50.0 °F 63% 30.12 in 10.0 mi WSW 5.8 mph - N/A   Scattered Clouds
12:35 PM 62.6 °F 51.8 °F 68% 30.12 in 10.0 mi Calm Calm - N/A   Overcast
12:55 PM 64.4 °F 51.8 °F 64% 30.12 in 10.0 mi SSW 4.6 mph - N/A   Overcast
1:15 PM 64.4 °F 50.0 °F 59% 30.11 in 10.0 mi Calm Calm - N/A   Overcast
1:35 PM 64.4 °F 50.0 °F 59% 30.10 in 10.0 mi Calm Calm - N/A   Overcast
1:55 PM 64.4 °F 50.0 °F 59% 30.10 in 10.0 mi Calm Calm - N/A   Overcast
2:15 PM 64.4 °F 50.0 °F 59% 30.09 in 10.0 mi Calm Calm - N/A   Overcast
2:35 PM 66.2 °F 48.2 °F 52% 30.08 in 10.0 mi Calm Calm - N/A   Overcast
2:55 PM 64.4 °F 46.4 °F 52% 30.08 in 10.0 mi Calm Calm - N/A   Overcast
3:15 PM 64.4 °F 50.0 °F 59% 30.09 in 10.0 mi Calm Calm - N/A   Overcast
3:35 PM 64.4 °F 50.0 °F 59% 30.08 in 10.0 mi Calm Calm - N/A   Overcast
3:55 PM 64.4 °F 51.8 °F 64% 30.08 in 10.0 mi North 3.5 mph - N/A   Overcast
4:15 PM 62.6 °F 53.6 °F 72% 30.08 in 10.0 mi NNW 3.5 mph - N/A   Overcast
4:35 PM 62.6 °F 53.6 °F 72% 30.08 in 10.0 mi Calm Calm - N/A   Overcast
4:55 PM 62.6 °F 51.8 °F 68% 30.08 in 10.0 mi NNW 3.5 mph - N/A   Overcast
5:15 PM 62.6 °F 50.0 °F 63% 30.07 in 10.0 mi North 3.5 mph - N/A   Overcast
5:35 PM 62.6 °F 50.0 °F 63% 30.08 in 10.0 mi Calm Calm - N/A   Overcast
5:55 PM 62.6 °F 50.0 °F 63% 30.07 in 10.0 mi NW 3.5 mph - N/A   Overcast
6:15 PM 62.6 °F 51.8 °F 68% 30.08 in 10.0 mi Calm Calm - N/A   Overcast
6:35 PM 62.6 °F 51.8 °F 68% 30.08 in 10.0 mi Calm Calm - N/A   Overcast
6:55 PM 60.8 °F 53.6 °F 77% 30.09 in 10.0 mi Calm Calm - N/A   Overcast
7:15 PM 60.8 °F 53.6 °F 77% 30.10 in 10.0 mi Calm Calm - N/A   Overcast
7:35 PM 60.8 °F 53.6 °F 77% 30.10 in 10.0 mi Calm Calm - N/A   Overcast
7:55 PM 59.0 °F 53.6 °F 82% 30.10 in 10.0 mi Calm Calm - N/A   Overcast
8:15 PM 57.2 °F 53.6 °F 88% 30.11 in 10.0 mi Calm Calm - N/A   Overcast
8:35 PM 59.0 °F 53.6 °F 82% 30.11 in 10.0 mi Calm Calm - N/A   Mostly Cloudy
8:55 PM 55.4 °F 53.6 °F 94% 30.12 in 10.0 mi Calm Calm - N/A   Scattered Clouds
9:15 PM 55.4 °F 51.8 °F 88% 30.12 in 7.0 mi Calm Calm - N/A   Scattered Clouds
9:35 PM 55.4 °F 53.6 °F 94% 30.12 in 10.0 mi Calm Calm - N/A   Clear
9:55 PM 53.6 °F 51.8 °F 94% 30.12 in 5.0 mi Calm Calm - N/A   Scattered Clouds
10:15 PM 53.6 °F 51.8 °F 94% 30.12 in 7.0 mi Calm Calm - N/A   Mostly Cloudy
10:35 PM 53.6 °F 51.8 °F 94% 30.12 in 7.0 mi Calm Calm - N/A   Overcast
10:55 PM 53.6 °F 51.8 °F 94% 30.13 in 7.0 mi Calm Calm - N/A   Overcast
11:15 PM 53.6 °F 51.8 °F 94% 30.13 in 7.0 mi Calm Calm - N/A   Overcast
11:35 PM 53.6 °F 51.8 °F 94% 30.12 in 10.0 mi Calm Calm - N/A   Overcast
11:55 PM 55.4 °F 51.8 °F 88% 30.12 in 10.0 mi Calm Calm - N/A   Overcast